Lake Charles, LA

6:40 PM CST on December 15, 2019 (GMT -0600)
Chennault International

Weather History for KCWF - November, 2019

Change the Weather History Date:

Tuesday, November 12, 2019

  Actual Average Record
Temperature  
Mean Temperature 39 °F -  
Max Temperature 46 °F 70 °F 87 °F (2003)
Min Temperature 31 °F 54 °F 40 °F (2013)
Degree Days  
Heating Degree Days 26    
Moisture  
Dew Point 31 °F    
Average Humidity 73    
Maximum Humidity 93    
Minimum Humidity 34    
Precipitation  
Precipitation 0.01 in - - ()
Sea Level Pressure  
Sea Level Pressure 30.33 in    
Wind  
Wind Speed 14 mph ()    
Max Wind Speed 23 mph    
Max Gust Speed 31 mph    
Visibility 9.8 miles    
Events      
Averages and records for this station are not official NWS values.
T = Trace of Precipitation, MM = Missing Value Source: Averaged Metar Reports

Daily Weather History Graph

Daily Weather History Graph

Search for Another Location

Airport or City:

Astronomy

Nov. 12, 2019 Rise Set
Actual Time 6:35 AM CST 5:17 PM CST
Civil Twilight 6:10 AM CST 5:42 PM CST
Nautical Twilight 5:41 AM CST 6:11 PM CST
Astronomical Twilight 5:12 AM CST 6:40 PM CST
Moon 5:43 PM CST (11/12) 6:31 AM CST (11/12)
Length of Visible Light 11h 32m
Length of Day
10h 42m
Full, 100% of the Moon is Illuminated
Nov 12
Full
Nov 19
Last Quarter
Nov 26
New
Dec 4
First Quarter
Dec 11
Full

Hourly Weather History & Observations

Time (CST) Temp. Windchill Dew Point Humidity Pressure Visibility Wind Dir Wind Speed Gust Speed Precip Events Conditions
12:35 AM 46.4 °F 39.8 °F 42.8 °F 87% 30.21 in 10.0 mi North 16.1 mph 26.5 mph N/A   Overcast
12:55 AM 46.2 °F 39.8 °F 43.0 °F 88% 30.21 in 10.0 mi North 15.0 mph 20.7 mph N/A   Overcast
1:15 AM 45.7 °F 38.3 °F 41.5 °F 85% 30.22 in 10.0 mi North 18.4 mph 27.6 mph N/A   Overcast
1:35 AM 43.9 °F 35.9 °F 40.5 °F 88% 30.23 in 10.0 mi North 18.4 mph 31.1 mph N/A   Overcast
1:55 AM 43.7 °F 34.7 °F 40.1 °F 87% 30.24 in 10.0 mi North 23.0 mph 31.1 mph N/A   Overcast
2:15 AM 43.7 °F 36.6 °F 40.1 °F 87% 30.24 in 10.0 mi North 15.0 mph 25.3 mph N/A   Overcast
2:35 AM 43.0 °F 36.4 °F 40.3 °F 90% 30.25 in 10.0 mi North 12.7 mph 23.0 mph N/A   Overcast
2:55 AM 42.8 °F 34.8 °F 39.0 °F 86% 30.25 in 10.0 mi North 17.3 mph 29.9 mph N/A   Overcast
3:15 AM 41.9 °F 33.4 °F 39.2 °F 90% 30.27 in 10.0 mi North 18.4 mph 28.8 mph N/A   Overcast
3:35 AM 41.0 °F 32.8 °F 38.5 °F 91% 30.29 in 7.0 mi North 16.1 mph 27.6 mph N/A   Overcast
3:55 AM 40.1 °F 30.7 °F 37.4 °F 90% 30.28 in 10.0 mi North 19.6 mph 26.5 mph N/A   Overcast
4:35 AM 38.8 °F 29.4 °F 36.3 °F 91% 30.33 in 10.0 mi North 18.4 mph 27.6 mph N/A   Overcast
4:55 AM 38.3 °F 29.3 °F 36.0 °F 91% 30.33 in 10.0 mi North 16.1 mph 26.5 mph 0.01 in   Overcast
5:15 AM 38.3 °F 29.3 °F 35.6 °F 90% 30.33 in 10.0 mi North 16.1 mph 23.0 mph N/A   Overcast
5:35 AM 38.1 °F 28.4 °F 34.9 °F 88% 30.33 in 10.0 mi NNE 18.4 mph 26.5 mph N/A   Overcast
6:00 AM 37.4 °F 27.8 °F 35.6 °F 93% 30.35 in 7.0 mi NNW 17.3 mph 24.2 mph N/A   Overcast
7:50 AM 37.4 °F 28.9 °F 32.0 °F 81% 30.39 in 10.0 mi North 13.8 mph 25.3 mph N/A   Overcast
9:55 AM 39.2 °F 29.3 °F 28.4 °F 65% 30.41 in 10.0 mi North 20.7 mph 29.9 mph N/A   Scattered Clouds
11:53 AM 44.6 °F 36.9 °F 26.6 °F 49% 30.40 in 10.0 mi North 18.4 mph 26.5 mph N/A   Clear
2:50 PM 46.4 °F 41.9 °F 21.2 °F 37% 30.36 in 10.0 mi North 9.2 mph 21.9 mph N/A   Clear
3:50 PM 44.6 °F 38.1 °F 17.6 °F 34% 30.37 in 10.0 mi North 13.8 mph 27.6 mph N/A   Clear
4:50 PM 41.0 °F 35.8 °F 23.0 °F 49% 30.37 in 10.0 mi North 8.1 mph - N/A   Clear
5:50 PM 39.2 °F 35.0 °F 23.0 °F 52% 30.38 in 10.0 mi North 5.8 mph - N/A   Clear
7:50 PM 37.4 °F 30.8 °F 21.2 °F 52% 30.39 in 10.0 mi North 9.2 mph - N/A   Clear
8:50 PM 35.6 °F 28.0 °F 21.2 °F 56% 30.39 in 10.0 mi NNE 10.4 mph 17.3 mph N/A   Clear
9:50 PM 33.8 °F 25.3 °F 19.4 °F 56% 30.40 in 10.0 mi North 11.5 mph 17.3 mph N/A   Clear
10:15 PM 33.8 °F 25.3 °F 20.5 °F 58% 30.40 in 10.0 mi NNE 11.5 mph - N/A   Clear
10:35 PM 33.1 °F 26.1 °F 21.0 °F 61% 30.40 in 10.0 mi NNE 8.1 mph - N/A   Clear
10:55 PM 32.4 °F 24.6 °F 20.8 °F 63% 30.40 in 10.0 mi NNE 9.2 mph 16.1 mph N/A   Clear
11:15 PM 32.2 °F 23.8 °F 20.3 °F 62% 30.40 in 10.0 mi NNE 10.4 mph - N/A   Clear
11:35 PM 32.0 °F 22.1 °F 20.3 °F 62% 30.39 in 10.0 mi NNE 13.8 mph 18.4 mph N/A   Clear
11:55 PM 31.5 °F 23.5 °F 20.3 °F 63% 30.39 in 10.0 mi NNE 9.2 mph - N/A   Clear